Location: Vancouver
(49.2500°N, 123.1330°W)
Time: 07:48:10
(UTC-07:00)

YAOGAN 6 - Visible Passes

Search period start: 27 July 2017 00:00
Search period end: 06 August 2017 00:00
Orbit: 469 x 508 km, 97.1° (Epoch: 26 July)

Date Brightness Start Highest point End Pass type
(mag) Time Alt. Az. Time Alt. Az. Time Alt. Az.
27 Jul 3.7 21:48:50 10° S 21:52:24 45° W 21:55:57 10° NNW visible
29 Jul 5.4 22:38:00 10° WSW 22:40:01 14° W 22:42:01 10° WNW visible
30 Jul 4.8 22:13:39 10° SSW 22:16:41 24° W 22:19:43 10° NW visible
31 Jul 3.8 21:49:57 10° S 21:53:27 43° W 21:56:57 10° NNW visible
01 Aug 2.7 21:26:37 10° S 21:30:17 81° WSW 21:33:56 10° NNW visible
02 Aug 5.4 22:39:13 10° WSW 22:41:03 13° W 22:42:54 10° WNW visible
03 Aug 4.8 22:14:47 10° SSW 22:17:44 23° W 22:20:42 10° NW visible
04 Aug 3.8 21:51:02 10° S 21:54:30 41° W 21:57:56 10° NNW visible
05 Aug 2.7 21:27:40 10° S 21:31:19 78° W 21:34:57 10° NNW visible
